Date String (YYYY-MM-DD hh:mm:ss) UTC,Instrument flags,Ambient pressure (hPa),Sample flow (lpm),Bypass flow (lpm),Sample temperature (°C),Ambient temperature (°C),ASC tube jacket temperature (°C),LED temperature (°C),Box temperature (°C),Sample RH (%),Span deviation,Mass concentration (μg/m³),Mass concentration (μg/m³),Mass concentration (μg/m³)
DateTimeUTC,F1_M11,P_M11,Q1_M11,Q2_M11,T1_M11,T2_M11,T3_M11,T4_M11,T5_M11,U1_M11,ZSPAN_M11,X0_M11,X2_M11,X1_M11
2022-02-12 23:00:00,,0830.4,4.98,0.00,25.3,24.4,00.0,34.2,27.1,06.9,0000.0,0014.20,0004.46,0003.63
2022-02-12 23:01:00,,0830.4,5.01,0.00,25.3,24.4,00.0,34.2,27.1,06.8,0000.0,0015.01,0004.43,0003.52
2022-02-12 23:02:00,,0830.4,5.01,0.00,25.3,24.4,00.0,34.2,27.1,06.7,0000.0,0016.15,0004.44,0003.38
2022-02-12 23:03:00,,0830.4,4.99,0.00,25.3,24.4,00.0,34.2,27.1,06.8,0000.0,0017.30,0004.44,0003.29
2022-02-12 23:04:00,,0830.3,5.01,0.00,25.3,24.4,00.0,34.2,27.1,06.8,0000.0,0019.71,0004.56,0003.22
2022-02-12 23:05:00,,0830.4,4.99,0.00,25.2,24.4,00.0,34.2,27.1,06.9,0000.0,0021.48,0004.75,0003.19
2022-02-12 23:06:00,,0830.4,5.00,0.00,25.2,24.4,00.0,34.2,27.1,07.0,0000.0,0022.92,0005.05,0003.27
2022-02-12 23:07:00,,0830.4,4.98,0.00,25.2,24.4,00.0,34.2,27.1,07.1,0000.0,0024.67,0005.28,0003.29
2022-02-12 23:08:00,,0830.4,5.01,0.00,25.2,24.3,00.0,34.2,27.1,07.1,0000.0,0025.89,0005.44,0003.28
2022-02-12 23:09:00,,0830.4,4.98,0.00,25.2,24.3,00.0,34.2,27.0,07.2,0000.0,0026.27,0005.55,0003.27
2022-02-12 23:10:00,,0830.4,5.02,0.00,25.2,24.3,00.0,34.1,27.0,07.3,0000.0,0026.49,0005.61,0003.29
2022-02-12 23:11:00,,0830.4,5.00,0.00,25.2,24.3,00.0,34.1,27.0,07.4,0000.0,0027.04,0005.78,0003.40
2022-02-12 23:12:00,,0830.4,5.01,0.00,25.2,24.3,00.0,34.1,27.0,07.5,0000.0,0027.66,0005.88,0003.51
2022-02-12 23:13:00,,0830.4,4.99,0.00,25.2,24.3,00.0,34.1,27.0,07.6,0000.0,0026.93,0005.90,0003.61
2022-02-12 23:14:00,,0830.4,4.99,0.00,25.2,24.3,00.0,34.1,27.0,07.7,0000.0,0026.00,0005.89,0003.67
2022-02-12 23:15:00,,0830.4,5.02,0.00,25.2,24.3,00.0,34.1,27.0,07.6,0000.0,0023.77,0005.76,0003.71
2022-02-12 23:16:00,,0830.4,4.98,0.00,25.2,24.3,00.0,34.1,27.0,07.5,0000.0,0021.97,0005.62,0003.74
2022-02-12 23:17:00,,0830.3,5.01,0.00,25.2,24.3,00.0,34.1,27.0,07.3,0000.0,0019.58,0005.48,0003.72
2022-02-12 23:18:00,,0830.4,5.00,0.00,25.2,24.3,00.0,34.1,27.0,07.2,0000.0,0018.07,0005.38,0003.68
2022-02-12 23:19:00,,0830.3,4.99,0.00,25.2,24.3,00.0,34.1,27.0,07.3,0000.0,0017.98,0005.37,0003.64
2022-02-12 23:20:00,,0830.5,5.01,0.00,25.2,24.3,00.0,34.1,27.0,07.2,0000.0,0019.62,0005.37,0003.58
2022-02-12 23:21:00,,0830.7,4.99,0.00,25.2,24.3,00.0,34.1,27.0,07.1,0000.0,0023.16,0005.45,0003.52
2022-02-12 23:22:00,,0830.8,4.99,0.00,25.2,24.3,00.0,34.1,27.0,07.1,0000.0,0023.54,0005.49,0003.44
2022-02-12 23:23:00,,0830.5,5.01,0.00,25.2,24.3,00.0,34.1,27.0,07.1,0000.0,0023.56,0005.49,0003.37
2022-02-12 23:24:00,,0830.7,4.99,0.00,25.2,24.3,00.0,34.1,27.0,07.2,0000.0,0025.00,0005.54,0003.31
2022-02-12 23:25:00,,0830.4,5.01,0.00,25.2,24.3,00.0,34.1,27.0,07.2,0000.0,0026.08,0005.58,0003.25
2022-02-12 23:26:00,,0830.4,4.99,0.00,25.2,24.3,00.0,34.1,27.0,07.3,0000.0,0026.93,0005.61,0003.20
2022-02-12 23:27:00,,0830.6,5.00,0.00,25.2,24.3,00.0,34.1,27.0,07.3,0000.0,0028.48,0005.67,0003.15
2022-02-12 23:28:00,,0830.4,5.01,0.00,25.1,24.3,00.0,34.1,27.0,07.3,0000.0,0028.64,0005.65,0003.11
2022-02-12 23:29:00,,0830.5,5.00,0.00,25.1,24.3,00.0,34.1,27.0,07.2,0000.0,0029.06,0005.60,0003.13
2022-02-12 23:30:00,,0830.6,5.01,0.00,25.1,24.3,00.0,34.1,27.0,07.1,0000.0,0028.59,0005.52,0003.16
2022-02-12 23:31:00,,0830.6,4.99,0.00,25.1,24.3,00.0,34.1,27.0,07.2,0000.0,0026.52,0005.46,0003.21
2022-02-12 23:32:00,,0830.6,5.02,0.00,25.1,24.3,00.0,34.0,27.0,07.1,0000.0,0022.55,0005.42,0003.25
2022-02-12 23:33:00,,0830.5,5.00,0.00,25.1,24.3,00.0,34.0,27.0,07.1,0000.0,0020.05,0005.29,0003.30
2022-02-12 23:34:00,,0830.4,5.00,0.00,25.1,24.3,00.0,34.0,27.0,07.0,0000.0,0019.44,0005.23,0003.34
2022-02-12 23:35:00,,0830.5,5.01,0.00,25.1,24.2,00.0,34.0,27.0,07.0,0000.0,0017.88,0005.13,0003.36
2022-02-12 23:36:00,,0830.4,4.99,0.00,25.1,24.2,00.0,34.0,26.9,07.1,0000.0,0017.04,0005.08,0003.39
2022-02-12 23:37:00,,0830.4,5.01,0.00,25.1,24.2,00.0,34.0,26.9,07.3,0000.0,0016.30,0005.03,0003.42
2022-02-12 23:38:00,,0830.4,4.99,0.00,25.1,24.2,00.0,34.0,26.9,07.4,0000.0,0014.88,0004.99,0003.47
2022-02-12 23:39:00,,0830.4,5.01,0.00,25.1,24.2,00.0,34.0,26.9,07.2,0000.0,0014.51,0004.98,0003.50
2022-02-12 23:40:00,,0830.3,5.01,0.00,25.1,24.2,00.0,34.0,26.9,07.0,0000.0,0014.54,0005.00,0003.52
2022-02-12 23:41:00,,0830.3,4.99,0.00,25.0,24.2,00.0,34.0,26.8,07.0,0000.0,0014.55,0005.05,0003.51
2022-02-12 23:42:00,,0830.4,5.00,0.00,25.0,24.2,00.0,34.0,26.8,07.0,0000.0,0015.24,0005.06,0003.52
2022-02-12 23:43:00,,0830.4,5.01,0.00,25.0,24.2,00.0,34.0,26.8,07.2,0000.0,0015.31,0005.00,0003.54
2022-02-12 23:44:00,,0830.4,4.99,0.00,25.0,24.2,00.0,34.0,26.8,07.7,0000.0,0015.56,0005.07,0003.57
2022-02-12 23:45:00,,0830.4,5.01,0.00,25.0,24.2,00.0,34.0,26.7,07.8,0000.0,0015.03,0005.13,0003.62
2022-02-12 23:46:00,,0830.4,4.99,0.00,25.0,24.2,00.0,34.0,26.7,07.8,0000.0,0014.48,0005.15,0003.66
2022-02-12 23:47:00,,0830.5,5.01,0.00,25.0,24.2,00.0,34.0,26.7,07.7,0000.0,0014.06,0005.16,0003.68
2022-02-12 23:48:00,,0830.4,5.00,0.00,25.0,24.2,00.0,34.0,26.7,07.7,0000.0,0014.78,0005.18,0003.71
2022-02-12 23:49:00,,0830.5,5.00,0.00,25.0,24.1,00.0,34.0,26.7,07.9,0000.0,0015.30,0005.26,0003.72
2022-02-12 23:50:00,,0830.5,5.00,0.00,25.0,24.1,00.0,33.9,26.7,07.7,0000.0,0016.01,0005.32,0003.75
2022-02-12 23:51:00,,0830.6,5.00,0.00,25.0,24.1,00.0,33.9,26.7,07.7,0000.0,0016.01,0005.40,0003.81
2022-02-12 23:52:00,,0830.5,5.01,0.00,24.9,24.1,00.0,33.9,26.7,08.0,0000.0,0016.08,0005.44,0003.84
2022-02-12 23:53:00,,0830.5,4.99,0.00,24.9,24.1,00.0,33.9,26.7,08.1,0000.0,0017.76,0005.54,0003.83
2022-02-12 23:54:00,,0830.6,5.00,0.00,24.9,24.1,00.0,33.9,26.7,07.9,0000.0,0018.87,0005.78,0003.81
2022-02-12 23:55:00,,0830.6,5.00,0.00,24.9,24.1,00.0,33.9,26.7,07.7,0000.0,0019.97,0005.92,0003.78
2022-02-12 23:56:00,,0830.6,4.99,0.00,24.9,24.1,00.0,33.9,26.7,07.5,0000.0,0022.13,0006.01,0003.75
2022-02-12 23:57:00,,0830.6,5.01,0.00,24.9,24.1,00.0,33.9,26.7,07.5,0000.0,0023.67,0006.12,0003.75
2022-02-12 23:58:00,,0830.7,4.99,0.00,24.9,24.1,00.0,33.9,26.7,07.8,0000.0,0024.55,0006.22,0003.71
2022-02-12 23:59:00,,0830.7,5.00,0.00,24.9,24.1,00.0,33.9,26.7,07.2,0000.0,0024.38,0006.29,0003.68
